FLOCK 4V-1 (46313 NORAD) Tracking and Keplerian Element Data

This shows tracking and keplerian element data for the satellite.

Feedback or suggestion? Click here.




ElementValue
Catalog46313
NameFLOCK 4V-1
Epoch Orbit300
Epoch Day267.4777761
Epoch Year2020
RAAN340.2571
Inclination97.5179
Eccentricity0.0003108
Argument of Perigee173.8453
Mean Anonmoly186.2815
Mean Motion15.10793143
Decay Rate4.04E-06
L11 46313U 20061AT 20267.47777610 .00000404 00000-0 28144-4 0 9993
L22 46313 97.5179 340.2571 0003108 173.8453 186.2815 15.10793143 3000

Live tracking and technical data element details for FLOCK 4V-1 (NORAD 46313). FLOCK 4V-1 can be tracked NOW for your location showing map with azimuth and elevation plus other details from your city location.

Track the satellite on the map from your city or location and see movement details for azimuth, elevation, latitude, longitude, range, height, and movement on the map or in text.







IsCatalogInMostPopularTable: catalog: 46313, numindb: 2
Update: records affected: 1



GetName: 46313 FLOCK 4V-1

Hit Count: updated at: Thu, 24 Sep 2020 18:32:43 GMT